Wind_Speed
32 31 29 28 29 30 30 29 28 28 29 29 28 27 26 27 27 27 27 28 28 28 29 29 30 31 32 33 34 35 35 35 36 36 37 37 38 39 40 41 42 43 43 44
33 31 29 31 31 31 31 30 29 29 30 30 29 28 27 27 27 27 27 28 28 28 29 30 31 32 33 33 34 34 35 35 36 36 36 36 37 39 40 41 42 43 44 44
34 32 32 32 31 31 31 31 30 30 30 31 30 29 27 28 28 27 27 28 28 29 29 30 31 32 33 33 33 34 35 35 36 36 36 37 38 39 40 41 42 43 43 44
35 34 33 32 32 32 31 31 31 31 31 31 31 31 27 28 28 27 27 27 28 29 30 30 31 31 32 33 34 34 35 35 35 36 36 37 38 38 39 40 41 41 41 42
35 34 34 33 32 32 32 31 32 32 33 32 31 32 28 27 27 27 27 28 28 29 30 30 30 31 32 32 33 34 34 34 34 36 36 37 37 38 38 39 40 40 41 41
36 35 35 34 33 33 32 32 32 33 34 34 31 32 29 26 26 26 27 28 28 29 29 30 30 30 30 31 32 33 33 34 34 35 36 36 37 37 37 38 39 39 39 40
37 36 35 35 34 33 33 33 33 34 35 34 31 32 30 27 26 27 27 28 28 29 29 29 29 29 29 30 31 32 32 33 33 34 35 35 35 36 37 37 36 36 36 37
37 37 36 35 34 33 33 33 33 34 34 32 31 31 29 28 27 27 27 27 28 28 28 29 29 29 29 30 31 31 30 31 32 34 34 33 34 34 35 35 34 33 34 34
37 37 36 35 35 35 34 34 33 33 34 33 33 31 29 28 27 26 26 27 27 28 28 28 29 29 30 30 30 31 31 31 32 32 32 32 33 33 33 33 33 32 32 33
38 38 37 36 36 36 35 34 33 34 34 34 33 31 29 27 26 26 26 26 27 28 28 28 29 30 30 31 31 31 31 31 31 31 31 32 32 31 31 31 31 31 31 31
37 38 38 38 37 36 35 35 34 34 35 34 34 31 29 28 27 26 26 26 27 27 27 28 29 30 31 31 31 30 30 30 30 30 30 30 30 29 29 29 29 30 30 29
37 38 38 37 37 37 37 35 34 34 34 34 34 32 29 28 27 26 26 26 27 27 27 28 29 29 29 29 29 28 29 29 29 28 28 28 27 27 27 28 28 28 28 28
38 39 38 38 37 37 37 36 35 35 35 35 34 32 29 29 28 27 27 26 27 27 27 27 27 27 28 28 27 27 27 27 27 27 26 26 25 26 26 27 27 27 26 27
40 41 40 39 37 35 35 35 35 35 35 35 34 32 29 28 28 28 27 27 27 27 27 27 27 27 27 27 26 26 26 26 26 26 24 24 24 25 25 25 25 25 25 26
41 41 41 39 38 37 36 35 35 35 35 36 34 33 30 28 28 28 28 27 28 27 27 26 26 26 26 26 25 25 25 25 25 25 24 23 23 24 24 24 24 24 24 24
40 41 41 40 39 39 38 36 35 34 34 34 34 32 30 29 29 28 28 28 27 26 25 25 25 25 25 25 24 24 24 24 24 24 23 22 23 23 23 24 24 24 24 23
38 38 39 40 40 40 40 37 35 34 32 32 32 30 30 29 29 28 28 28 27 26 25 25 26 25 24 23 23 23 23 24 24 24 23 22 23 24 24 24 24 24 24 24
36 37 38 39 39 40 38 36 35 35 34 32 32 31 31 29 28 28 28 28 27 26 26 26 25 25 24 23 23 23 23 23 23 22 22 23 23 24 25 25 25 24 24 25
35 36 37 37 38 38 38 36 34 34 34 33 32 31 31 30 29 28 27 27 26 26 26 26 25 25 24 23 23 23 23 23 23 23 23 23 24 25 25 25 25 24 25 25
34 35 36 35 36 37 36 36 35 34 34 33 32 31 30 30 29 27 28 28 28 27 27 26 25 24 24 24 24 24 23 22 23 23 24 24 25 26 25 25 25 25 26 26
33 33 35 35 34 34 34 34 34 34 33 32 31 31 31 30 29 29 29 29 28 27 27 27 26 25 25 26 25 24 23 23 24 25 25 25 26 26 26 25 25 26 27 27
32 33 34 35 34 33 32 33 34 34 32 31 31 31 30 30 30 29 29 29 28 27 27 27 27 27 27 25 25 24 24 25 25 25 26 26 26 26 26 27 27 28 28 28
31 32 32 33 33 32 32 32 34 34 33 32 31 31 30 30 30 29 29 29 29 28 28 27 28 27 26 25 25 25 25 26 26 26 26 26 26 26 27 28 28 28 28 29
31 32 33 34 33 32 33 32 33 33 33 33 32 31 30 30 29 29 29 29 28 28 28 27 27 27 26 26 25 26 26 26 27 28 28 27 27 27 28 29 29 30 30 30
29 31 33 33 32 33 33 33 32 32 32 32 31 30 30 30 29 29 28 28 28 28 28 28 28 27 27 26 27 27 26 27 27 28 27 27 28 28 29 30 31 31 31 30
28 30 31 32 32 33 33 33 33 32 31 32 31 30 30 30 29 29 28 28 28 28 29 28 28 28 27 27 27 27 27 27 28 28 28 28 29 30 31 31 31 31 31 30
Wind_Direction
241 241 242 243 243 243 243 244 244 245 247 249 250 251 252 254 258 261 264 266 268 269 270 271 272 274 275 276 276 276 276 276 276 277 278 278 279 279 278 277 276 276 274 273
240 240 240 241 242 242 243 244 245 246 248 250 251 252 254 257 260 263 265 267 268 269 270 272 273 275 277 277 277 277 277 277 278 278 279 280 280 279 278 278 278 278 277 275
239 239 239 240 241 242 244 245 245 247 248 251 254 253 255 259 262 264 266 267 268 270 272 274 275 277 278 278 278 277 277 279 279 279 279 281 282 281 279 279 279 280 281 279
238 238 239 240 241 243 244 245 246 247 249 251 254 255 253 259 262 264 265 267 269 272 275 276 277 278 279 279 279 279 280 281 281 281 281 283 283 282 281 280 280 281 282 283
238 238 239 239 241 242 243 244 246 248 250 252 253 258 255 258 262 264 266 268 271 274 276 277 278 279 280 279 280 281 282 282 282 282 283 284 284 283 282 282 281 282 283 284
236 236 237 238 239 241 243 244 247 248 250 252 254 258 259 260 263 264 266 269 272 274 276 278 278 280 282 281 282 282 283 283 283 284 284 285 285 284 283 284 284 284 284 284
235 236 237 238 240 241 243 245 248 250 251 254 255 258 260 263 264 265 267 270 272 274 276 278 279 281 283 284 285 285 284 283 284 285 286 287 287 286 286 286 286 286 286 284
236 236 236 238 240 242 243 245 248 251 253 255 256 258 261 264 265 266 269 271 273 275 278 280 282 284 285 286 287 287 285 285 285 287 288 288 289 289 288 287 286 288 289 285
238 237 236 237 238 240 241 244 246 250 253 255 255 257 260 264 266 268 270 272 273 276 279 281 284 285 286 287 288 289 288 286 286 287 288 288 289 291 291 290 288 288 289 286
238 239 237 237 237 238 241 243 245 248 252 255 256 257 260 264 266 268 270 272 274 278 281 284 286 285 286 287 288 290 290 288 288 287 288 289 289 290 292 292 289 289 289 287
237 238 237 237 237 239 240 242 245 248 251 255 257 258 261 266 267 270 272 274 277 281 283 285 288 287 287 288 288 289 290 291 290 289 290 291 289 289 291 293 291 290 289 287
235 236 237 237 238 239 240 242 244 248 251 254 257 258 262 266 268 271 274 276 280 283 284 286 289 290 289 290 289 289 290 293 293 291 290 291 291 291 293 295 293 291 289 288
232 234 236 237 237 239 240 241 243 247 250 253 256 258 261 265 268 271 275 277 280 282 283 285 288 290 290 291 290 289 292 293 293 293 290 290 292 293 294 295 295 293 290 289
230 233 235 238 240 240 241 242 244 246 248 251 255 258 261 264 267 270 273 276 279 281 283 285 287 288 290 291 289 289 292 294 294 293 290 289 291 295 295 295 296 295 293 291
231 233 235 237 239 239 239 240 242 245 248 252 254 257 259 262 264 268 272 275 279 280 283 284 285 287 288 289 288 289 292 294 294 293 292 289 292 295 296 297 297 297 297 297
231 233 234 235 238 240 240 239 241 243 247 250 253 256 259 262 264 268 271 274 276 279 279 281 283 287 289 290 288 288 290 292 292 292 291 291 293 294 296 298 298 299 301 302
230 232 234 235 235 239 240 240 242 244 247 251 253 256 258 260 262 266 268 271 273 274 276 277 281 284 286 287 288 288 288 290 291 292 292 292 293 293 295 297 298 299 300 302
232 233 234 235 235 238 240 242 244 246 246 249 253 255 257 259 261 264 268 270 271 271 273 275 278 283 285 284 287 290 290 291 294 294 293 293 292 293 295 297 298 299 299 302
232 233 235 237 239 240 240 241 243 246 248 249 252 255 257 258 260 263 266 269 270 270 273 274 277 281 283 283 285 288 291 292 293 294 293 292 292 293 295 297 299 300 301 303
232 232 234 238 241 242 242 242 244 247 249 249 252 254 256 258 260 262 264 267 269 271 272 273 276 281 281 281 283 286 288 290 292 293 293 294 293 293 294 296 299 301 303 303
233 233 234 237 241 244 244 245 245 246 248 248 251 254 256 257 258 259 263 266 268 269 270 272 274 277 279 279 281 283 285 287 289 291 294 294 294 295 295 295 297 299 301 302
234 234 235 237 239 240 243 244 245 247 248 249 250 254 257 258 259 261 263 266 267 269 270 271 273 274 275 277 278 279 282 285 288 291 293 294 293 294 295 295 296 298 298 299
234 235 238 239 240 240 241 244 245 246 248 250 251 253 255 258 260 262 265 266 266 268 269 270 272 273 273 273 274 276 280 284 288 290 292 292 292 292 293 294 295 296 296 296
235 236 239 239 239 240 241 243 244 245 247 249 252 254 255 257 259 261 263 265 267 268 268 269 270 271 271 272 275 276 281 284 287 289 291 291 291 292 293 295 295 296 297 296
238 239 240 239 239 240 241 241 242 243 245 248 251 253 255 257 259 260 262 264 265 266 267 267 268 269 269 271 275 278 281 284 286 289 290 290 291 292 294 294 296 297 297 296
238 240 241 240 239 241 241 242 243 244 245 247 249 251 254 257 259 261 263 263 263 265 266 267 267 266 267 269 273 278 280 284 286 289 290 292 292 293 294 296 296 297 296 296
Height
5688 5692 5695 5698 5699 5701 5703 5705 5708 5710 5711 5713 5715 5718 5720 5721 5722 5723 5723 5723 5724 5723 5723 5722 5722 5721 5720 5719 5718 5717 5716 5715 5713 5712 5711 5709 5708 5706 5704 5702 5700 5698 5696 5695
5682 5685 5688 5689 5691 5694 5696 5699 5701 5704 5705 5706 5708 5711 5713 5714 5715 5716 5716 5716 5716 5716 5716 5715 5714 5713 5711 5710 5708 5707 5706 5705 5704 5702 5701 5699 5697 5695 5693 5691 5689 5686 5684 5682
5674 5679 5680 5682 5685 5687 5689 5692 5694 5696 5698 5699 5701 5704 5707 5708 5708 5709 5709 5709 5709 5709 5708 5708 5706 5705 5703 5701 5699 5697 5696 5695 5694 5692 5691 5689 5687 5684 5682 5680 5677 5675 5672 5669
5664 5669 5672 5675 5678 5680 5683 5685 5687 5688 5690 5692 5695 5695 5701 5701 5701 5701 5702 5702 5702 5701 5700 5700 5698 5697 5694 5692 5690 5688 5687 5686 5684 5682 5681 5678 5676 5674 5671 5669 5666 5663 5660 5657
5657 5661 5664 5667 5671 5673 5675 5677 5679 5681 5682 5685 5687 5688 5693 5694 5694 5695 5695 5695 5694 5693 5693 5691 5690 5688 5686 5684 5682 5680 5678 5676 5674 5672 5670 5668 5665 5663 5660 5658 5655 5652 5649 5645
5648 5652 5656 5660 5663 5665 5667 5670 5672 5673 5674 5677 5681 5681 5684 5687 5687 5688 5688 5687 5686 5686 5685 5683 5682 5680 5677 5675 5673 5671 5669 5667 5665 5662 5660 5658 5655 5652 5649 5646 5643 5640 5637 5634
5639 5643 5648 5651 5655 5657 5660 5663 5665 5665 5666 5670 5673 5673 5677 5679 5680 5680 5680 5680 5679 5678 5677 5675 5674 5672 5669 5667 5664 5662 5660 5658 5655 5653 5650 5647 5644 5641 5638 5635 5632 5629 5626 5623
5631 5636 5640 5644 5647 5650 5653 5655 5658 5659 5661 5663 5665 5666 5671 5672 5672 5672 5672 5672 5671 5670 5668 5667 5665 5663 5660 5658 5655 5653 5650 5648 5646 5643 5640 5637 5634 5631 5627 5624 5621 5619 5616 5613
5622 5627 5632 5635 5639 5642 5644 5647 5650 5651 5652 5655 5657 5660 5663 5664 5665 5665 5665 5664 5663 5662 5660 5658 5656 5653 5651 5649 5646 5644 5641 5638 5635 5632 5630 5627 5624 5621 5618 5615 5612 5610 5607 5604
5613 5618 5622 5626 5629 5633 5636 5639 5642 5643 5644 5646 5649 5653 5656 5657 5657 5658 5658 5656 5655 5654 5652 5649 5647 5644 5642 5639 5637 5634 5631 5628 5626 5623 5621 5618 5615 5613 5610 5606 5604 5601 5599 5596
5604 5608 5613 5617 5621 5625 5629 5632 5634 5636 5637 5640 5642 5648 5649 5649 5650 5650 5649 5648 5647 5645 5643 5641 5638 5635 5633 5630 5628 5625 5622 5619 5617 5614 5612 5610 5607 5605 5602 5599 5596 5594 5592 5590
5595 5598 5602 5608 5613 5616 5619 5623 5626 5629 5631 5632 5634 5641 5641 5641 5641 5642 5641 5640 5639 5637 5635 5632 5630 5627 5624 5621 5619 5616 5614 5612 5609 5606 5604 5602 5600 5598 5596 5593 5590 5588 5586 5584
5585 5589 5593 5598 5604 5607 5610 5614 5618 5621 5623 5624 5626 5633 5633 5634 5634 5634 5633 5632 5631 5629 5627 5625 5622 5619 5616 5614 5611 5609 5607 5604 5601 5599 5597 5595 5594 5592 5590 5588 5585 5583 5581 5579
5575 5579 5585 5590 5595 5599 5603 5607 5609 5612 5614 5616 5620 5624 5626 5626 5626 5626 5625 5624 5623 5621 5620 5618 5615 5612 5609 5607 5605 5603 5601 5598 5595 5593 5591 5589 5588 5587 5585 5583 5580 5578 5576 5574
5565 5570 5575 5580 5585 5589 5593 5597 5600 5603 5606 5609 5613 5615 5618 5618 5618 5618 5618 5617 5616 5614 5613 5611 5608 5606 5603 5601 5599 5597 5595 5592 5590 5587 5586 5585 5583 5582 5580 5578 5576 5574 5572 5569
5556 5561 5566 5571 5576 5579 5583 5588 5592 5595 5598 5601 5604 5607 5610 5610 5610 5610 5610 5609 5608 5608 5606 5604 5602 5600 5598 5595 5593 5591 5589 5587 5584 5582 5581 5579 5578 5578 5576 5574 5572 5570 5567 5565
5547 5552 5557 5562 5567 5569 5575 5582 5585 5588 5591 5594 5596 5600 5601 5601 5602 5602 5602 5601 5601 5601 5600 5598 5596 5595 5593 5590 5588 5586 5584 5582 5579 5577 5576 5575 5575 5573 5572 5570 5568 5566 5563 5561
5539 5544 5548 5553 5558 5562 5571 5574 5576 5579 5582 5585 5588 5590 5591 5593 5594 5594 5594 5594 5594 5594 5593 5592 5591 5589 5587 5585 5583 5581 5579 5577 5575 5574 5573 5571 5570 5569 5567 5565 5563 5561 5559 5556
5532 5536 5540 5545 5549 5554 5561 5565 5568 5571 5574 5577 5579 5581 5582 5584 5585 5587 5588 5587 5587 5587 5587 5586 5585 5584 5582 5580 5578 5577 5575 5573 5571 5570 5569 5567 5566 5564 5562 5561 5558 5556 5554 5552
5524 5529 5534 5537 5541 5546 5553 5556 5559 5563 5566 5568 5570 5572 5574 5575 5578 5581 5580 5580 5580 5581 5581 5580 5580 5578 5577 5575 5573 5572 5571 5569 5568 5566 5564 5562 5561 5559 5557 5555 5553 5551 5549 5546
5517 5521 5525 5529 5533 5538 5543 5547 5551 5555 5558 5559 5561 5564 5566 5568 5570 5572 5572 5573 5573 5574 5574 5573 5573 5573 5572 5570 5568 5567 5566 5564 5563 5561 5559 5557 5555 5553 5551 5550 5548 5545 5543 5541
5510 5514 5518 5522 5526 5533 5535 5538 5542 5545 5548 5550 5553 5555 5558 5560 5561 5563 5565 5565 5566 5566 5566 5566 5566 5566 5565 5564 5563 5562 5560 5559 5557 5556 5554 5551 5549 5547 5545 5544 5542 5539 5537 5535
5503 5508 5511 5516 5522 5524 5526 5530 5532 5536 5539 5542 5544 5547 5549 5551 5553 5555 5556 5557 5558 5559 5559 5559 5559 5558 5558 5557 5556 5555 5555 5553 5552 5550 5548 5546 5544 5542 5540 5537 5535 5533 5531 5528
5496 5499 5503 5507 5512 5515 5518 5521 5524 5527 5530 5533 5536 5539 5541 5543 5545 5547 5548 5549 5550 5551 5552 5552 5552 5551 5551 5550 5550 5549 5548 5547 5546 5544 5542 5540 5538 5536 5534 5532 5529 5527 5524 5521
5489 5492 5495 5499 5504 5507 5510 5513 5516 5519 5522 5525 5528 5530 5533 5535 5537 5539 5540 5541 5542 5543 5543 5544 5544 5544 5544 5543 5543 5542 5541 5541 5539 5538 5536 5534 5532 5530 5528 5526 5523 5520 5517 5514
5482 5485 5488 5492 5496 5498 5502 5505 5508 5511 5513 5516 5519 5522 5524 5527 5529 5531 5532 5533 5534 5535 5535 5536 5536 5536 5536 5536 5536 5535 5534 5534 5533 5531 5530 5527 5526 5524 5521 5519 5516 5513 5510 5507